GFSNGP_sfc_rhum_066.txt.gz
RH
20 16 15 18 17 19 25 24 28 26 20 17 17 17 17 19 22 21 21 21 28 37 46 50 58 62 64 73 76 77 79 83 85 84 86 90 92 90 87 88 86 86 90 90
31 22 22 23 20 19 23 21 22 25 22 16 16 20 22 23 24 31 40 40 37 42 52 59 62 62 67 70 76 77 80 84 84 84 81 83 85 88 82 77 76 80 82 79
36 32 33 56 36 23 24 26 26 27 20 17 21 21 23 30 36 42 50 53 52 53 57 60 61 61 64 68 69 72 73 73 74 74 78 77 71 72 73 80 78 81 78 76
48 69 81 26 27 22 24 22 20 22 20 20 20 24 33 39 40 47 51 54 56 57 59 58 57 57 59 55 59 62 63 64 65 66 66 70 81 86 84 73 74 62 52 47
78 48 30 28 31 30 31 26 20 23 19 16 26 35 40 42 43 47 52 51 52 51 54 54 53 51 51 52 55 60 64 65 66 72 79 80 77 77 74 57 49 46 42 43
61 57 82 37 23 23 24 34 18 19 21 22 36 42 23 43 47 49 47 47 49 50 50 52 50 49 52 54 55 58 58 60 63 61 69 71 53 47 46 42 39 37 41 45
62 74 43 29 29 25 40 38 20 20 23 32 36 31 41 44 46 44 45 47 46 46 48 49 49 48 50 50 52 52 54 53 48 44 42 42 42 41 41 44 50 59 60 57
68 91 78 35 31 34 28 33 26 30 29 39 43 49 47 46 46 46 45 45 42 45 46 47 46 46 46 48 43 44 45 45 44 43 40 42 46 46 43 42 45 46 76 53
49 43 48 34 27 27 30 26 33 30 31 38 50 47 46 46 46 44 42 40 41 44 46 43 39 39 43 44 41 43 44 44 44 42 38 33 34 33 31 33 42 49 49 59
56 30 37 40 31 41 31 32 31 35 36 46 45 46 46 42 42 41 40 41 41 43 45 49 46 44 43 44 40 38 42 42 38 36 33 31 25 28 32 46 52 50 55 57
47 36 47 45 43 37 40 42 45 41 40 43 43 44 42 41 41 41 42 40 40 45 50 49 45 43 40 40 39 40 38 35 36 38 36 34 35 41 47 52 63 62 59 58
62 44 46 30 42 40 46 47 47 46 46 42 42 43 41 42 42 44 43 43 48 49 48 45 43 43 39 35 33 33 33 35 48 45 44 36 34 41 68 64 65 64 66 70
41 55 53 59 55 54 50 49 47 45 44 46 40 41 44 47 48 51 47 50 50 50 47 44 44 42 39 38 36 36 36 39 44 47 43 43 44 45 47 55 57 58 61 61
57 58 54 59 52 58 57 54 55 48 47 47 48 46 49 48 50 50 53 50 47 47 46 40 37 37 36 36 40 45 48 63 46 46 47 51 50 54 54 60 68 62 52 55
61 59 57 59 58 58 55 55 57 56 56 55 52 53 51 53 54 55 50 45 46 48 46 38 37 40 39 43 38 38 40 44 53 60 63 61 62 61 59 59 61 58 54 51
62 59 59 61 59 60 58 59 66 67 60 58 57 56 53 54 55 52 51 59 68 50 41 68 52 43 43 38 35 37 47 65 59 53 56 58 58 61 57 61 61 62 62 64
68 74 73 70 69 67 64 63 63 62 63 61 61 62 58 59 73 89 92 90 86 80 71 64 49 40 44 38 35 38 41 46 68 52 55 57 62 64 62 65 67 66 69 72
64 62 61 64 68 74 73 72 72 73 76 78 85 90 95 96 95 93 88 85 87 78 54 48 45 44 40 39 40 47 53 52 56 62 59 69 65 61 67 68 65 66 69 65
69 68 74 73 86 92 96 97 97 96 96 96 97 97 96 96 87 85 85 89 87 73 59 52 61 48 47 58 47 54 60 67 62 57 65 68 72 66 71 76 73 74 70 70
79 82 89 94 92 92 96 97 96 96 96 95 97 96 92 94 93 92 85 74 61 57 50 52 48 48 48 57 59 52 67 75 62 67 74 72 77 81 78 70 71 75 80 79
93 93 94 93 96 98 98 97 95 93 94 96 94 94 94 94 87 85 77 67 66 60 56 60 53 50 48 52 50 71 75 77 75 75 77 80 81 77 78 78 79 80 81 81
94 93 96 93 84 90 92 91 90 95 91 92 95 92 87 81 87 85 83 65 64 71 61 60 58 76 63 76 57 74 68 69 74 77 78 79 80 81 80 79 80 81 80 81
95 92 92 92 88 84 84 84 92 91 91 88 86 83 75 67 62 67 71 64 62 75 63 72 85 85 76 79 78 78 77 76 78 78 79 81 81 81 80 80 80 81 80 80
90 89 84 68 63 59 62 59 63 72 85 85 88 81 70 78 81 69 72 80 83 80 81 83 84 73 84 81 80 80 79 79 79 80 77 80 80 79 78 80 80 79 79 79
86 85 80 72 63 61 57 58 60 62 66 67 71 70 72 73 81 79 83 86 85 78 83 92 82 81 82 81 80 81 80 80 81 82 80 80 80 80 80 79 80 81 82 82
79 77 73 68 65 62 62 61 67 68 69 80 81 86 86 84 83 82 86 86 83 82 82 82 80 81 80 78 80 80 80 76 78 78 79 79 79 78 80 79 81 82 82 82
78 73 68 71 70 72 73 74 80 82 81 87 85 84 81 85 87 81 85 84 82 80 80 80 79 78 80 81 78 78 78 78 77 78 81 80 80 81 82 82 83 83 83 84

GFSNGP_sfc_rhum_069.txt.gz
RH
18 16 14 15 18 17 20 22 30 23 18 13 13 13 13 15 15 16 14 15 17 21 29 35 44 52 72 75 78 80 84 87 92 92 91 92 94 93 91 89 86 84 86 88
24 18 16 17 14 15 14 14 14 15 16 12 12 12 13 15 16 17 22 24 20 23 33 42 52 58 72 76 79 79 85 89 88 89 88 89 88 88 84 83 83 87 89 86
39 21 22 38 22 17 16 15 17 23 18 14 13 13 14 14 18 23 32 36 33 36 46 50 54 64 74 77 78 82 84 81 81 80 82 82 76 76 77 83 83 79 69 68
54 66 66 26 18 16 18 16 15 16 15 13 13 13 18 21 21 31 37 42 45 47 50 51 53 58 67 66 69 70 70 71 72 72 70 67 68 75 82 73 69 65 64 50
64 53 31 20 23 24 22 20 15 15 14 13 13 20 24 25 26 33 39 42 44 46 48 49 50 49 51 54 55 58 62 62 61 62 68 72 80 78 69 69 62 46 41 41
56 57 66 30 19 21 17 33 17 15 16 17 19 34 17 31 36 41 39 40 43 44 44 46 46 46 49 50 52 58 60 59 58 63 61 62 66 57 48 43 39 34 35 40
62 62 37 18 18 23 41 40 17 16 16 18 21 22 31 37 40 37 37 39 40 42 44 44 46 47 50 51 53 51 51 54 55 53 45 42 43 40 38 38 42 56 58 52
65 78 72 25 29 34 32 24 21 20 19 23 30 40 39 39 39 38 39 40 38 42 44 44 43 45 44 46 46 46 43 44 41 39 35 35 40 41 39 38 43 45 55 50
45 47 34 29 25 26 24 30 24 25 20 23 41 38 39 40 39 38 38 36 37 41 46 44 42 40 43 42 40 43 44 42 40 36 33 32 33 32 28 30 40 47 47 54
44 32 29 30 28 26 27 29 23 27 24 27 39 37 38 36 36 37 36 37 38 41 42 43 38 37 38 41 41 38 40 39 36 33 31 26 21 24 28 42 48 48 50 54
36 29 25 31 38 33 29 30 29 27 27 29 36 37 35 35 36 35 38 37 38 40 43 43 41 42 38 37 36 37 36 32 33 32 30 32 31 36 45 60 64 58 56 55
51 31 39 32 41 45 35 33 34 35 32 32 33 35 34 35 35 35 38 38 41 44 44 42 39 38 36 33 32 32 32 33 45 44 41 29 29 46 65 67 65 64 66 70
37 42 45 47 46 42 43 38 35 37 34 34 33 33 35 36 37 46 39 42 44 43 42 40 37 33 30 31 31 34 36 40 45 46 39 39 40 43 42 69 62 63 65 58
44 50 48 43 44 48 47 43 48 38 35 35 37 35 36 39 43 41 43 43 42 41 39 37 35 37 34 34 38 42 42 67 40 41 43 48 45 51 50 56 66 61 65 54
47 48 48 47 47 46 45 46 46 45 42 41 39 41 42 44 44 45 45 43 42 39 39 39 38 39 38 43 36 39 39 42 51 59 61 59 58 57 56 55 58 56 52 54
46 46 46 49 47 49 48 48 50 51 47 46 47 48 45 44 50 48 45 52 60 58 66 73 54 51 48 36 36 42 50 60 62 50 53 53 55 56 53 57 58 59 59 58
56 58 57 55 54 53 51 52 54 52 52 55 56 56 60 60 70 84 89 92 94 95 91 88 72 48 44 36 34 37 40 47 70 48 52 54 58 61 59 62 65 64 66 67
51 50 49 53 58 62 62 64 64 69 75 84 86 89 93 95 96 96 95 92 93 94 84 62 50 41 39 38 39 45 50 49 52 58 56 63 64 60 63 65 63 63 65 63
61 66 65 67 74 82 90 95 96 96 97 96 96 96 96 96 91 91 92 94 94 89 72 60 59 46 46 60 47 53 59 64 60 54 62 63 72 63 67 72 71 71 67 68
85 88 91 94 94 91 95 97 97 96 96 95 96 96 96 96 95 95 95 92 79 63 52 49 44 45 46 52 61 48 64 69 62 62 70 72 75 77 76 68 69 72 76 76
95 96 97 95 96 96 98 97 95 93 95 96 95 95 94 95 94 92 80 69 59 55 53 55 50 47 45 49 52 65 70 73 72 72 74 77 78 75 77 77 77 77 78 77
95 95 98 93 84 92 91 88 85 94 93 95 95 94 92 86 86 80 80 65 62 63 56 56 58 72 60 74 55 72 67 67 71 75 77 79 79 80 80 79 79 78 77 77
96 91 87 87 87 85 84 84 93 90 93 91 86 79 70 61 58 67 70 60 60 66 60 78 77 74 71 81 80 79 77 75 76 77 79 82 83 83 83 79 77 77 78 77
90 80 72 64 62 61 64 60 64 71 86 82 84 80 68 76 78 65 68 75 73 79 88 86 83 76 80 82 82 81 79 80 81 84 80 81 82 84 81 79 77 76 76 76
76 69 64 64 58 57 53 52 55 57 62 61 65 65 69 73 90 88 86 83 77 82 89 82 75 75 80 80 80 80 80 81 82 79 79 84 84 82 78 78 77 77 77 78
73 72 68 65 63 60 61 63 72 73 72 81 82 88 87 83 80 81 81 75 75 71 78 80 81 77 81 83 81 80 80 78 80 81 81 78 78 77 77 76 76 77 78 79
70 69 67 69 67 69 71 72 79 82 80 86 85 83 79 80 82 73 77 80 78 80 80 82 79 80 76 81 76 81 80 82 83 78 76 78 78 78 79 79 79 80 80 80

GFSNGP_sfc_rhum_072.txt.gz
RH
22 18 18 20 22 21 22 23 34 33 24 18 15 16 18 17 19 23 23 15 17 21 33 37 47 74 74 78 80 81 87 93 97 96 95 96 96 97 94 95 92 89 89 88
33 20 20 21 19 19 18 18 17 19 20 14 12 12 15 14 14 17 19 24 21 22 36 47 74 77 80 83 85 86 91 96 95 96 96 96 96 94 92 90 89 87 90 94
47 27 23 38 25 18 16 16 17 23 19 15 16 14 16 19 16 18 23 31 32 31 50 63 75 75 81 86 87 89 90 89 90 90 92 92 88 87 89 91 90 88 85 83
60 66 58 28 18 17 20 17 16 15 16 15 14 14 17 19 24 25 31 36 38 49 57 67 72 74 79 78 84 85 85 84 85 85 84 81 80 83 86 82 80 80 80 77
67 58 36 25 22 23 26 26 19 17 16 14 13 21 25 22 26 30 38 42 48 50 54 65 71 71 71 74 75 75 78 78 74 74 74 75 80 80 79 80 78 77 66 57
76 63 67 39 22 24 24 39 20 18 22 20 20 43 31 29 30 38 39 42 48 51 54 58 61 62 63 65 67 71 68 67 66 69 73 75 76 75 76 76 64 50 51 62
77 78 53 26 23 28 46 47 29 22 21 25 24 33 35 35 40 40 40 42 45 48 52 53 53 54 57 59 63 61 62 63 65 63 64 66 68 61 55 57 68 81 76 69
73 80 71 27 31 34 37 43 31 28 29 37 48 44 41 41 42 40 40 42 44 48 48 50 50 53 56 58 55 56 58 59 60 54 44 46 56 55 51 63 69 70 73 75
54 61 48 42 39 42 40 39 40 37 32 34 47 42 42 42 42 40 40 43 42 46 53 53 50 48 51 54 53 53 53 50 47 43 44 45 53 50 48 51 64 82 81 87
49 44 47 42 42 40 33 40 33 34 35 34 44 41 42 40 39 40 40 41 42 48 51 52 47 45 46 48 48 48 50 49 46 44 40 35 31 36 53 71 86 81 83 85
44 34 37 35 33 42 40 38 36 34 36 35 42 41 40 39 39 39 41 40 44 50 52 48 45 46 45 46 46 47 47 42 42 44 46 46 52 57 81 79 80 85 85 84
67 41 46 42 47 48 47 45 41 42 39 36 35 39 38 38 38 39 42 42 46 46 47 47 46 45 43 41 40 42 40 48 70 69 63 44 51 62 73 73 67 68 66 82
38 40 48 52 45 40 46 44 41 41 43 40 39 37 39 39 41 49 43 45 48 51 49 46 44 39 37 43 45 50 54 53 62 63 64 64 67 74 81 72 62 64 67 62
27 50 53 44 49 47 45 44 46 40 40 41 43 40 40 42 46 44 45 47 46 45 43 41 40 42 42 44 50 57 54 73 64 73 72 78 73 75 75 80 89 88 71 66
45 47 47 48 47 45 44 45 46 47 47 46 44 45 46 46 47 48 48 44 42 43 41 43 47 50 48 58 58 71 70 81 84 85 82 79 79 79 78 78 79 78 76 78
43 45 44 48 46 48 47 48 55 52 48 48 51 52 51 56 65 72 66 60 64 71 73 89 84 88 64 69 88 83 66 77 73 70 74 73 76 76 72 77 77 81 82 85
59 59 54 55 55 53 55 54 54 53 58 69 78 78 78 82 85 90 93 91 93 96 96 96 97 84 55 51 50 53 60 62 75 62 66 70 75 77 76 83 85 86 89 94
52 52 49 56 63 68 80 82 82 83 86 86 87 88 90 91 95 96 96 96 96 96 95 93 76 53 53 49 50 57 67 64 64 70 68 80 80 76 81 85 81 82 85 81
68 75 78 81 83 90 95 96 95 93 93 92 93 96 96 96 95 95 95 95 96 94 93 88 66 58 56 68 56 68 73 77 72 67 75 77 87 82 86 89 87 88 85 86
86 86 88 90 90 91 96 97 96 96 96 95 95 94 95 96 96 96 96 95 90 86 62 47 46 47 49 52 71 60 76 82 75 80 87 86 90 91 90 83 86 90 92 90
95 92 92 92 97 97 97 95 91 92 93 90 91 94 95 96 94 93 90 80 60 60 54 61 58 56 54 60 61 81 85 87 86 86 88 90 90 88 89 89 91 91 91 91
97 97 97 96 93 94 93 87 86 92 92 93 93 92 92 88 86 84 83 72 64 71 63 72 70 80 69 85 76 89 85 86 90 90 91 93 94 92 91 91 92 92 92 91
96 95 94 92 91 92 90 91 95 93 95 94 90 85 78 75 80 79 81 65 67 86 82 86 85 86 88 90 92 92 90 88 89 91 90 92 92 92 90 89 93 91 92 91
94 92 89 77 71 70 78 72 71 76 86 83 88 92 88 86 85 76 76 84 88 90 91 89 88 86 93 93 90 90 89 89 89 93 92 85 88 90 90 91 91 93 91 93
81 72 66 65 62 62 60 60 64 68 75 76 78 76 76 83 92 94 91 88 83 88 91 90 92 85 87 90 92 90 89 90 94 90 90 93 90 90 90 90 93 94 92 90
83 84 83 77 74 71 72 77 88 85 80 90 91 92 90 89 88 85 86 85 83 82 87 92 90 91 87 89 85 86 90 87 90 90 92 90 88 88 90 89 89 90 91 92
82 76 73 76 74 78 80 79 86 90 91 90 90 84 84 89 86 83 86 85 87 87 86 88 88 86 90 86 89 88 85 87 90 92 90 91 88 90 91 90 91 90 88 89

GFSNGP_sfc_rhum_075.txt.gz
RH
36 26 25 30 31 29 29 32 50 42 38 34 26 23 22 23 26 25 24 23 26 40 50 83 89 92 93 96 97 96 96 97 98 98 98 98 98 98 96 95 95 92 93 93
46 36 26 28 28 27 26 27 26 29 36 28 23 19 20 19 28 28 26 32 39 43 69 77 86 93 94 97 95 94 97 98 98 97 97 98 98 97 96 95 93 92 92 92
56 41 38 52 36 27 27 25 27 32 28 23 22 20 22 22 20 26 37 38 44 67 82 85 91 92 96 94 93 94 96 96 96 95 97 97 94 94 94 94 93 93 91 91
79 68 63 40 26 25 28 24 22 25 26 23 21 22 27 28 32 41 43 44 69 83 88 89 92 94 94 92 90 91 92 93 93 93 93 91 91 93 94 90 86 88 91 90
73 66 52 38 30 33 32 33 24 26 26 22 20 29 36 30 33 45 53 61 77 86 86 90 90 88 88 90 85 86 89 89 87 86 86 86 90 89 89 88 89 92 84 76
90 82 75 52 35 27 31 49 29 29 30 30 31 47 41 39 51 57 61 66 72 85 86 88 85 84 86 82 81 84 81 80 78 78 80 83 81 84 86 85 79 62 72 79
95 99 80 41 29 35 50 56 29 34 34 33 37 45 41 52 56 56 61 67 70 74 82 84 78 77 80 78 79 74 70 73 76 76 78 78 82 87 84 77 78 86 80 84
89 92 95 40 37 42 47 45 35 42 42 54 52 55 59 58 58 56 60 65 67 72 74 74 72 72 77 78 64 66 71 77 76 74 67 74 74 69 71 80 83 81 80 88
75 77 59 54 41 47 44 44 44 47 44 52 59 56 59 60 58 57 59 64 63 66 70 71 68 66 73 73 68 66 69 72 61 55 56 58 63 63 64 69 83 85 84 90
80 65 58 68 52 52 44 43 40 41 42 54 56 58 58 56 56 57 60 63 64 67 72 73 67 62 66 66 64 58 56 58 52 50 51 50 53 65 75 84 87 86 88 87
69 51 45 50 46 48 49 52 44 44 42 43 57 58 56 55 56 58 60 63 64 70 65 60 55 56 55 59 56 55 51 47 54 55 59 61 73 74 78 79 83 85 90 89
71 47 51 53 54 54 51 59 56 52 49 44 48 55 53 56 57 56 62 63 61 57 56 50 47 50 51 48 48 54 57 60 72 68 72 58 66 82 84 78 66 65 69 88
46 52 64 65 56 53 56 58 54 53 52 51 48 52 55 56 58 66 59 59 58 52 46 46 49 52 55 58 57 60 61 62 71 75 81 85 91 93 90 75 64 65 62 61
38 60 66 63 66 58 57 53 55 54 57 58 58 58 55 56 59 59 57 51 45 47 50 52 55 59 57 56 70 81 88 93 92 94 94 92 88 85 86 89 94 90 73 70
62 62 65 61 58 56 54 60 60 61 59 58 55 56 57 60 59 55 49 49 51 53 55 61 75 83 84 86 88 93 94 96 96 95 91 90 89 87 86 86 86 84 84 86
63 60 60 62 60 61 61 63 68 74 81 76 75 74 71 70 68 67 66 66 76 87 85 92 92 95 96 96 96 94 92 94 94 85 85 84 86 85 82 85 84 88 89 94
69 75 71 71 76 77 80 77 78 79 81 84 83 79 77 79 83 89 93 92 93 95 96 95 96 95 94 95 95 94 93 82 84 78 78 79 86 86 84 90 92 91 94 96
80 76 68 78 84 89 90 89 88 88 90 87 86 88 90 91 95 96 96 95 94 95 95 95 93 92 90 82 76 75 78 74 75 81 80 90 84 84 89 94 94 96 96 94
84 89 90 90 91 94 95 96 94 92 92 90 91 95 95 95 95 95 95 94 94 93 95 93 89 59 54 65 68 79 85 88 86 85 90 92 95 94 99 96 96 96 97 97
90 88 90 92 90 93 97 94 92 94 96 94 94 94 95 96 95 95 94 95 91 87 64 53 53 58 57 62 80 82 91 94 92 95 96 97 98 98 98 96 96 97 98 98
94 93 94 93 96 96 95 94 93 93 96 94 92 94 94 95 94 91 88 80 62 66 65 70 69 69 65 82 86 96 95 97 98 98 99 100 98 98 98 98 99 99 99 99
96 96 96 96 94 95 95 94 92 93 92 92 91 90 90 88 88 86 85 80 80 87 81 82 82 87 82 97 91 97 96 96 97 98 98 98 98 98 98 99 100 100 100 100
96 95 95 95 94 95 94 93 94 92 94 92 91 92 93 87 80 87 93 88 85 89 84 91 90 90 94 98 97 96 96 97 98 99 97 97 98 100 99 96 96 98 99 99
95 94 94 94 91 84 90 87 79 81 89 89 95 91 85 92 94 86 88 93 91 91 95 95 93 93 97 94 92 95 98 100 100 100 98 100 96 96 98 100 95 96 97 98
93 93 89 78 72 74 76 76 77 77 81 82 85 82 84 85 91 95 91 92 96 96 97 96 96 97 99 100 100 99 100 98 97 96 96 99 100 100 100 98 96 96 96 96
90 91 92 89 87 86 84 78 86 86 86 92 93 94 94 93 93 91 92 95 92 95 97 100 97 97 96 96 99 98 99 98 100 99 100 100 100 99 100 100 99 98 99 100
91 89 84 84 79 79 82 86 92 93 91 92 94 93 91 92 93 92 98 96 96 96 96 96 97 98 99 100 100 100 100 100 99 100 100 100 100 100 100 100 100 100 100 100